Regional Weather Roundup
Issued by NWS Jackson, KY

Home | Current Version | Previous Version | Graphics & Text | Print | Product List | Glossary On
Versions: 1 2 3 4 5 6 7 8 9 10 11 12 13 14 15 16 17 18 19 20 21 22 23 24 25 26 27 28 29 30 31 32 33 34 35 36 37 38 39 40 41 42 43 44 45 46 47 48 49 50
000
ASUS43 KJKL 300510
RWRJKL

EAST KENTUCKY HOURLY WEATHER ROUNDUP
NATIONAL WEATHER SERVICE JACKSON KY
100 AM EDT SAT MAY 30 2015

NOTE: "FAIR" INDICATES FEW OR NO CLOUDS BELOW 12,000 FEET WITH
NO SIGNIFICANT WEATHER AND/OR OBSTRUCTIONS TO VISIBILITY.

* THESE REPORTS ARE NOT UNDER NWS QUALITY CONTROL AND MAY NOT
  REPORT WEATHER SUCH AS PRECIPITATION AND FOG.

KYZ079-080-083-085-087-088-110-112-115-119-120-300600
...EASTERN KENTUCKY...

CITY           SKY/WX    TMP DP  RH WIND       PRES   REMARKS
JACKSON        CLEAR     68  62  81 CALM      30.16S
LONDON         PTCLDY    68  63  84 CALM      30.15F
SOMERSET*      PTCLDY    68  66  94 CALM      30.15S
MONTICELLO*    MOCLDY    70  68  93 S5        30.16S
MIDDLESBORO*   PTCLDY    66  64  94 CALM      30.17F
HARLAN APT*    CLOUDY    64  64 100 CALM      30.19S
HAZARD APT*    CLEAR     68  64  88 CALM      30.16S
BLACK MTN*       N/A     61  59  94 CALM        N/A
PIKEVILLE APT* CLEAR     68  64  88 S5        30.16F
BIG SANDY*     PTCLDY    68  66  93 SW3       30.15F
MOREHEAD APT*  PTCLDY    68  66  94 SE5       30.15S FOG
$$

KYZ035-036-041-042-044-050-067-078-099-300600
...CENTRAL KENTUCKY...

CITY           SKY/WX    TMP DP  RH WIND       PRES   REMARKS
MT STERLING*   PTCLDY    70  68  94 SW5       30.14S
FLEMING/MASON* CLEAR     68  66  94 S5        30.12F
DANVILLE*      PTCLDY    68  64  88 S5        30.13F
RICHMOND*      PTCLDY    72  63  73 S5        30.12F
LEXINGTON      PTCLDY    71  64  78 S8        30.11F
FRANKFORT      CLEAR     71  63  75 S6        30.09S
$$

KYZ091>093-OHZ055-061-077-WVZ005-015-034-035-042-300600
...SOUTHERN OHIO/WEST VIRGINIA...

CITY           SKY/WX    TMP DP  RH WIND       PRES   REMARKS
COVINGTON      PTCLDY    71  66  84 S6        30.07F
COLUMBUS       MOCLDY    72  65  78 S6        30.08S
DAYTON         MOCLDY    75  67  76 S10       30.07F
WILMINGTON     PTCLDY    70  64  81 S9        30.09R
HUNTINGTON     CLOUDY    68  66  93 CALM      30.12S
CHARLESTON     PTCLDY    66  65  96 SE5       30.14S
PINEVILLE*     PTCLDY    63  63 100 MISG      30.25S FOG
BECKLEY        CLEAR     63  59  87 SE9       30.23S
BLUEFIELD      CLEAR     68  59  73 S5        30.25F
$$

VAZ002-007-008-TNZ017-027-036-066-071-300600
...SOUTHWEST VIRGINIA/EAST TENNESSEE...

CITY           SKY/WX    TMP DP  RH WIND       PRES   REMARKS
WISE*          PTCLDY    66  59  77 SW5       30.24S
JONESVILLE*    FOG       64  64 100 CALM      30.21S VSB 3/4
ABINGDON*      CLEAR     65  65  97 CALM      30.22S
BRISTOL        PTCLDY    63  62  97 CALM      30.19S
KNOXVILLE      PTCLDY    67  65  93 NE3       30.15F
OAK RIDGE      CLOUDY    71  65  81 CALM      30.17S
CROSSVILLE     PTCLDY    67  63  87 CALM      30.19S
NASHVILLE      CLOUDY    72  66  81 S3        30.10S
$$

...KEY TO REMARKS...
VSB - VISIBILITY IN MILES
WCI - WIND CHILL INDEX
HX  - HEAT INDEX

$$



USA.gov is the U.S. government's official web portal to all federal, state and local government web resources and services.